Presure
249 165 253 238 263 241 224 249 247 242 215 217 209 210 204 207 210 209 199 202 200 198 197 204 197 206 203 205 211 204 218 213 208 203 205 200 197 191 195 206 203 200 200 199
227 153 226 237 241 215 245 239 219 222 206 213 212 207 200 207 206 206 203 201 198 201 199 209 209 202 207 215 216 204 206 200 200 204 205 208 206 199 198 195 191 193 194 197
226 244 244 240 248 218 246 225 233 207 210 218 211 202 206 201 201 202 194 196 198 198 207 203 198 212 213 209 194 191 196 200 197 195 204 197 190 189 195 191 196 197 193 195
229 192 254 243 233 230 240 238 212 207 214 211 203 202 201 201 204 194 191 192 196 201 198 197 158 192 194 201 201 189 188 189 187 189 197 191 193 196 196 196 191 197 196 194
234 263 252 246 224 247 229 236 205 215 217 208 200 198 195 198 207 201 193 193 197 198 196 192 195 192 192 194 191 191 191 190 191 191 185 186 188 193 194 194 189 194 189 195
252 252 245 233 224 243 226 210 205 218 210 207 201 197 197 191 197 199 197 194 198 199 195 190 190 197 196 195 192 189 189 190 191 193 196 194 194 192 193 187 187 194 202 188
240 248 236 228 238 237 223 204 217 206 215 182 198 197 194 188 195 199 139 200 196 192 195 194 189 190 194 194 194 191 189 193 193 188 190 183 185 189 194 194 198 198 197 196
254 240 230 223 251 224 218 206 212 201 209 182 198 195 197 187 195 209 205 197 194 197 197 195 196 192 188 187 194 192 189 193 194 195 193 185 186 198 199 194 191 202 205 197
243 231 230 220 244 218 222 211 203 205 206 197 195 194 202 190 188 208 207 200 199 199 197 198 197 192 191 192 192 191 190 189 191 191 192 189 193 194 191 201 186 198 199 191
235 230 225 246 215 221 219 211 196 205 206 199 191 193 198 190 191 193 187 207 208 203 198 197 197 195 197 201 200 196 196 197 194 193 195 193 195 189 196 199 197 187 193 198
227 228 219 249 229 218 217 208 198 204 197 200 197 198 188 198 195 188 199 190 190 202 206 206 194 194 199 198 200 201 203 199 195 196 196 192 194 191 190 198 140 160 197 195
226 226 218 246 227 220 205 214 204 186 194 201 178 194 193 194 195 193 190 189 185 198 186 202 211 198 193 196 192 204 206 209 209 201 180 198 202 193 191 193 194 193 193 194
225 222 218 243 228 227 197 218 194 202 203 200 199 180 187 195 194 194 195 193 191 198 199 186 195 199 191 189 184 198 211 222 196 196 197 190 109 192 193 198 191 189 190 197
220 223 216 221 233 224 198 213 208 216 198 191 191 196 189 186 191 197 190 189 190 191 190 193 201 197 196 192 195 195 199 195 158 85 165 187 189 196 194 188 189 199 205 208
224 219 213 194 213 222 204 187 214 204 211 208 202 200 199 185 193 193 193 190 191 189 192 198 195 195 195 192 190 185 102 176 192 189 189 195 196 191 190 201 208 202 196 213
220 214 219 239 233 222 217 204 204 195 202 208 204 202 199 203 196 177 181 182 185 192 189 94 198 196 195 198 193 183 191 196 194 196 196 191 193 199 199 197 208 215 212 213
211 218 225 235 230 220 220 213 202 206 199 206 207 198 192 191 193 196 196 200 202 199 198 198 198 198 192 194 180 198 200 197 200 207 199 205 211 215 209 208 220 215 212 206
217 206 238 251 219 233 222 216 210 210 203 201 207 204 204 205 197 192 188 206 200 201 198 203 199 199 200 179 183 189 198 199 205 211 216 221 221 222 225 213 209 193 200 202
216 210 211 217 204 236 230 223 220 207 206 195 209 202 200 203 202 204 204 202 203 204 207 212 199 192 196 201 211 203 207 213 226 223 215 212 213 216 197 195 200 202 205 211
217 216 212 207 245 241 241 239 223 218 216 226 224 205 200 205 210 210 216 219 214 195 194 198 200 196 200 210 217 219 207 206 202 201 199 197 202 205 207 207 208 215 215 214
215 216 214 213 212 212 217 235 232 231 235 238 217 216 225 229 211 210 218 216 224 223 218 218 216 219 209 202 205 207 208 209 209 210 210 207 214 219 219 215 218 226 229 228
218 216 207 209 213 210 211 209 202 200 216 228 222 221 215 213 214 220 220 216 219 220 208 205 201 202 206 208 210 208 204 213 221 220 219 217 217 218 228 232 229 240 241 244
219 215 219 216 214 209 210 213 210 206 201 203 200 202 210 212 212 207 208 212 212 212 213 213 212 210 214 220 220 220 219 215 214 225 227 228 239 243 239 245 248 243 252 261
204 222 224 220 221 211 216 213 213 213 213 211 212 211 211 211 211 209 206 205 216 214 215 217 221 224 217 210 215 224 227 226 228 226 236 243 244 252 260 262 269 265 233 271
237 235 230 223 221 221 222 222 220 218 212 210 209 209 213 215 216 216 215 217 217 213 209 209 218 222 227 229 226 229 238 244 249 248 253 258 260 257 247 240 243 236 237 241
228 222 214 226 231 234 232 230 229 227 223 218 218 220 219 219 220 224 226 229 231 231 235 229 234 238 239 242 250 255 253 258 253 254 261 254 241 236 235 240 246 277 285 277
229 234 238 233 235 240 238 238 231 228 231 231 235 234 230 230 226 225 228 228 224 232 233 241 246 252 255 251 255 240 256 235 240 234 233 237 246 295 298 285 285 291 291 279
Wind_Speed
57 39 43 44 37 40 38 40 38 35 37 35 34 33 30 26 23 21 20 15 13 12 12 11 10 10 10 10 11 11 11 8 8 9 10 12 14 17 18 17 19 22 25 28
57 40 42 44 45 43 45 43 41 39 38 37 35 34 31 26 24 21 18 15 16 13 12 12 12 11 11 13 11 9 8 9 9 12 15 16 16 19 21 22 24 28 32 35
63 52 48 50 54 48 50 46 41 39 38 37 37 35 29 28 25 22 21 19 17 14 14 12 10 11 11 10 10 10 9 10 12 15 16 17 20 24 24 25 29 32 33 38
55 52 57 58 54 51 51 43 43 43 38 38 38 33 31 28 26 25 24 21 17 14 14 11 18 11 10 9 12 15 16 15 18 20 19 21 24 27 30 29 33 37 38 41
61 64 62 61 54 57 54 44 48 45 45 42 39 36 33 29 27 26 25 22 20 18 17 16 15 17 18 18 19 18 18 19 20 21 26 28 32 32 35 33 36 41 43 48
63 61 65 61 54 58 54 53 51 49 43 39 37 36 34 33 29 27 26 24 22 20 21 21 21 21 21 20 21 23 24 21 22 25 24 28 38 33 37 37 42 45 49 48
59 66 65 60 57 60 57 55 52 47 42 37 42 39 37 35 30 29 29 26 25 26 26 26 26 24 24 23 24 27 28 27 27 29 28 31 40 42 41 42 46 48 49 52
69 68 64 59 61 61 59 56 52 47 47 39 42 39 37 35 32 32 30 27 29 28 28 27 26 27 28 27 29 32 33 32 31 31 35 35 44 48 46 44 47 55 49 53
70 66 64 59 62 59 59 56 51 50 50 46 43 40 37 36 34 30 29 30 30 30 29 28 29 31 32 32 36 37 38 38 38 38 38 39 45 50 50 50 49 54 54 57
69 64 62 58 59 62 61 56 50 51 51 46 42 40 38 38 37 33 30 29 30 32 32 32 33 34 34 37 40 42 42 42 42 43 43 42 49 50 53 55 55 55 60 63
65 63 61 58 62 63 61 56 51 53 49 47 45 43 41 42 41 33 29 31 32 33 35 36 34 33 36 40 42 44 46 47 48 49 49 46 50 51 54 56 40 49 63 65
64 63 58 58 63 63 57 57 56 43 46 50 41 44 43 42 38 37 36 38 38 34 35 34 38 39 40 41 41 46 47 50 49 49 47 49 49 53 56 60 61 64 66 70
62 60 56 59 64 62 52 56 51 53 54 50 49 39 38 44 41 40 39 40 41 39 41 39 39 41 44 44 45 47 49 49 50 52 54 53 29 57 61 65 64 67 70 76
58 57 53 57 64 61 53 55 57 55 52 48 47 49 44 40 42 45 45 45 45 44 44 44 45 44 44 46 48 49 53 54 38 15 46 54 62 67 66 63 68 78 83 84
56 54 52 53 56 61 59 48 55 56 54 53 54 52 52 41 48 50 50 49 48 46 48 49 48 48 48 47 48 52 19 51 54 56 62 66 69 68 69 79 83 79 76 85
53 52 45 61 61 63 64 59 58 47 53 55 55 55 54 57 56 40 45 44 47 53 48 16 54 56 54 51 53 62 66 62 61 65 66 64 70 78 77 77 84 88 82 85
54 50 54 56 61 62 62 63 59 60 53 57 58 55 53 53 55 58 57 62 64 59 58 57 58 60 49 54 56 77 72 68 74 78 70 80 83 83 83 85 88 87 87 84
53 52 50 60 48 65 64 64 64 63 59 55 59 59 62 65 61 57 53 66 59 60 56 64 63 59 60 50 63 68 75 74 79 84 85 86 86 86 86 84 85 79 85 89
53 54 51 49 51 62 65 65 66 59 58 49 62 61 63 64 66 66 65 63 61 60 64 69 60 59 65 72 81 79 81 84 82 81 80 81 83 84 78 79 85 91 94 97
56 55 52 52 50 54 57 60 63 62 62 61 65 64 62 70 74 72 74 73 72 54 57 63 67 67 72 79 80 80 79 79 78 80 79 80 85 88 90 91 93 97 99 99
57 56 55 54 52 50 51 54 55 57 59 61 62 68 75 77 70 68 71 70 75 72 73 75 71 70 74 76 78 79 81 83 84 86 87 87 90 93 95 96 97 101 105 103
60 59 52 52 55 52 49 47 48 49 55 61 68 71 68 66 70 73 73 74 73 70 68 68 66 72 78 78 80 82 81 89 92 93 94 95 95 97 103 104 103 107 107 111
59 57 61 60 59 54 53 55 58 59 58 59 58 58 63 66 68 68 70 72 73 76 76 77 80 81 85 87 88 89 90 89 91 101 101 103 109 110 110 113 114 112 114 112
41 62 64 62 62 51 60 62 64 65 65 65 68 70 71 73 73 72 70 69 78 78 82 86 90 90 83 81 87 96 99 100 102 102 109 110 109 111 112 112 110 110 92 110
66 68 67 61 62 64 67 68 69 70 67 65 66 68 74 77 78 77 77 80 79 77 77 77 87 92 97 99 95 98 105 109 109 108 109 108 107 106 100 97 100 97 100 103
59 57 52 62 68 72 73 74 75 77 77 75 78 81 82 84 84 86 89 91 93 96 99 94 97 99 103 107 109 106 106 107 105 104 106 105 96 96 95 102 107 106 105 106
58 62 66 66 68 72 73 75 73 73 76 80 85 86 87 88 87 88 93 94 88 98 101 107 108 109 105 105 106 98 109 92 97 90 91 99 108 110 108 108 109 108 107 104
Wind_Direction
217 232 218 211 226 210 218 201 194 191 198 194 195 195 200 191 184 181 197 182 192 202 212 213 222 231 238 235 229 228 212 217 239 255 265 268 269 270 282 299 305 303 300 299
213 224 208 209 209 207 205 198 196 192 201 195 191 198 209 191 188 187 184 195 209 215 226 223 218 226 237 229 213 232 241 258 270 272 278 281 284 291 298 304 303 303 307 306
221 204 207 202 202 206 200 198 187 195 200 193 193 202 193 197 196 191 202 211 215 222 218 220 234 230 226 236 242 251 264 275 275 280 282 287 284 289 299 301 308 305 303 300
205 222 198 201 196 203 194 189 192 196 196 192 197 197 196 200 197 209 212 221 222 227 228 232 268 233 243 248 246 250 259 265 271 278 297 291 293 296 301 303 300 300 298 296
200 196 194 196 197 194 194 184 194 194 194 194 195 198 206 204 201 203 215 221 225 227 229 236 234 235 237 237 242 251 257 265 275 283 287 291 293 298 298 303 299 300 300 305
188 191 193 194 195 191 192 193 196 193 195 191 196 206 208 215 215 215 218 223 227 228 228 232 236 238 243 249 257 263 266 271 276 281 288 293 289 295 294 296 295 300 301 304
187 190 190 192 191 189 189 197 192 195 193 209 203 206 209 218 221 221 253 223 227 230 233 237 244 251 256 259 262 268 272 275 276 282 283 284 289 290 293 296 298 300 302 302
189 188 190 191 187 191 192 197 192 196 195 213 205 210 213 221 225 218 220 224 232 235 240 244 249 256 262 268 267 269 274 276 280 283 285 284 287 292 293 296 301 299 306 302
188 188 190 191 186 193 193 195 198 198 200 204 209 213 213 220 226 221 224 230 236 241 245 249 252 256 260 262 265 267 271 276 278 279 282 287 289 290 294 298 301 303 303 303
186 188 190 187 191 194 195 195 204 201 203 207 213 215 218 223 228 229 236 232 237 244 249 251 253 256 262 266 269 272 275 278 279 281 285 286 286 292 298 300 301 302 305 307
186 190 190 186 191 196 197 199 206 204 210 210 214 217 222 227 231 233 239 244 247 246 249 253 261 266 267 269 272 273 275 275 278 281 283 286 290 295 297 298 304 305 305 304
187 189 191 187 193 198 205 200 205 214 214 212 224 220 225 232 236 236 240 245 251 252 257 262 260 263 269 272 276 277 278 280 281 282 288 291 292 293 296 298 303 304 305 306
189 191 193 188 195 199 208 203 213 213 214 217 221 230 231 235 239 240 241 246 249 253 256 260 266 265 269 272 280 282 281 279 285 291 294 294 320 297 299 302 302 303 304 305
192 192 195 195 196 200 209 206 209 212 219 224 226 228 235 241 243 245 247 249 254 258 261 265 268 270 270 274 278 283 281 282 289 309 296 297 298 299 301 300 300 302 303 304
194 194 197 202 202 200 208 215 209 218 219 221 225 231 234 244 245 248 251 255 258 261 264 267 270 273 273 279 287 286 309 289 292 292 292 295 295 296 298 300 301 302 303 304
196 197 198 197 201 204 205 215 216 226 225 225 227 231 238 240 246 254 259 263 264 263 269 290 273 276 281 286 289 284 286 293 294 292 292 294 293 295 297 297 299 300 302 303
197 200 202 201 204 209 210 213 221 224 230 232 232 237 244 248 251 252 257 258 259 265 270 275 278 280 288 290 286 279 288 290 290 290 291 293 294 294 296 298 300 302 302 302
201 204 206 203 215 209 215 217 222 225 231 237 237 239 242 245 251 257 258 258 266 270 274 274 277 282 284 277 279 284 284 287 289 292 292 291 292 294 295 298 300 301 300 300
205 207 208 210 214 213 216 222 225 229 232 238 239 245 249 252 256 258 261 264 266 270 272 273 277 280 282 282 281 283 286 289 290 291 293 294 295 295 297 298 298 298 299 300
209 212 214 216 214 216 218 221 226 229 232 233 236 244 250 252 254 258 259 262 265 272 275 277 278 280 283 282 284 285 287 288 289 290 291 293 294 294 294 295 296 296 297 298
214 217 220 223 226 229 228 229 233 238 238 238 247 246 245 248 259 265 263 266 265 268 271 273 277 279 278 279 282 284 285 286 288 289 290 291 292 294 295 293 295 298 300 302
217 221 228 230 232 234 235 238 241 244 246 245 248 252 257 261 264 265 266 269 272 273 273 276 278 278 278 281 283 283 284 287 290 291 292 293 293 294 296 298 300 299 301 302
222 227 229 232 235 239 241 241 244 246 248 251 253 258 260 262 264 267 270 272 273 275 277 278 278 278 281 283 285 286 287 288 290 293 293 294 297 297 298 298 299 300 298 297
226 231 233 235 237 241 242 244 246 249 252 255 258 260 261 263 265 267 268 270 273 274 277 278 280 282 283 283 285 288 290 291 291 293 294 294 294 294 292 291 293 295 299 297
231 233 236 241 244 246 247 249 251 253 255 256 258 260 263 266 268 270 272 274 275 276 276 278 280 282 284 285 286 288 290 291 290 290 291 291 292 294 295 297 297 298 300 301
239 239 239 244 246 247 249 251 253 255 257 259 262 264 265 267 269 271 273 275 278 279 281 282 283 285 286 288 289 288 290 290 292 292 291 293 294 296 297 298 296 298 298 300
249 252 253 254 255 253 254 256 259 262 263 264 265 265 268 269 272 275 276 277 280 280 282 283 285 285 285 287 287 290 289 293 294 293 294 295 295 297 297 298 299 300 300 302